Weather in Korekozevo

Russia / Kaluga Oblast     54°19′31″N   36°10′47″E
temp.,
°C
wind,
m/s
gust,
m/s
humid.,
%
clouds,
%
prec.,
mm/h
press.,
hPa
HPBL,
m
20 april, tue
tue2000:00+4ene51196100 0.5 1020707
03:00+4ene51196100 0.8 1019666
06:00+4e5994100 0.9 1018764
09:00+5ene51190100 1.9 1018599
12:00+5e61091100 0.0 1017804
15:00+3ene51097100 0.1 1016567
18:00+2ene51197100 0.0 1013501
21:00+3ne51097100 0.1 1011671
21 april, wed
wed2100:00+2ne51097100 0.2 1007509
03:00+1n3799100 3.1 1004263
06:00+1wnw35100100 1.9 1002192
09:00+2wsw3799100 2.8 1004317
12:00+3wsw5991100 0.1 1005815
15:00+4sw5991100 0.2 1008927
18:00+5sw4990100 0.0 1010649
21:00+4ssw3894100 0.1 1012249
22 april, thu
thu2200:00+4ssw3993100 0.1 1012256
03:00+4sw3794100 0.3 1014274
06:00+4ssw2694100 0.1 1015255
09:00+7ssw4784100 0.1 1016456
12:00+10ssw446289 0.1 10161398
15:00+12sw345595 0.3 10161593
18:00+11s35687 0.0 1017408
21:00+6se35825 0.0 101772
23 april, fri
fri2300:00+5sse35895 0.0 101779
03:00+5se39955 0.0 1016177
06:00+5sse310965 0.0 1016229
09:00+11ssw58785 0.1 1016485
12:00+15s696015 0.2 10151455
15:00+17ssw71152100 1.3 10132497
18:00+14s6126380 0.2 10121095
21:00+10ssw4985100 1.6 1012299
24 april, sat
sat2400:00+9s51186100 1.1 1011682
03:00+5wnw4695100 7.3 1011518
06:00+3wnw3797100 2.0 1011408
09:00+3w2497100 5.3 1011456
12:00+6sw2381100 0.6 1010870
15:00+8wnw356072 1.6 10081510
18:00+5wnw7989100 1.1 1009773
21:00+3wnw51080100 1.3 1010590